Regional Weather Roundup
Issued by NWS Wakefield, VA

Home | Current Version | Previous Version | Text Only | Print | Product List | Glossary On
Versions: 1 2 3 4 5 6 7 8 9 10 11 12 13 14 15 16 17 18 19 20 21 22 23 24 25 26 27 28 29 30 31 32 33 34 35 36 37 38 39 40 41 42 43 44 45 46 47 48 49 50
000
ASUS41 KAKQ 020210
RWRAKQ

REGIONAL WEATHER ROUNDUP
NATIONAL WEATHER SERVICE WAKEFIELD VA
1000 PM EDT MON SEP 01 2014

Note: "fair" indicates few or no clouds below 12,000 feet with no
significant weather and/or obstructions to visibility. * = Denotes
station may not report precipitation (e.g., rain,snow,etc.),
thunder or fog.

VAZ042-051-052>054-056-020300-
NORTHERN VIRGINIA

CITY           SKY/WX    TMP DP  RH WIND       PRES   REMARKS
WASH NATIONAL  PTCLDY    83  75  77 S5        29.97R
DULLES         PTCLDY    78  73  84 S3        29.97S
FORT BELVOIR   CLEAR     75  75 100 E1        29.97R
QUANTICO       CLEAR     79  75  87 CALM      29.97R
FREDERICKSBRG* CLEAR     80  74  81 S5        29.96S
STAFFORD*      PTCLDY    76  76 100 CALM      30.01S
WARRENTON      NOT AVBL
CULPEPER*      CLEAR    N/A N/A N/A CALM      29.98S
MANASSAS*      CLEAR     79  77  94 CALM      29.97R
LEESBURG*      MOCLDY    77  77 100 CALM      29.98S
WINCHESTER     PTCLDY    79  68  69 W5        29.99R
$$

VAZ048-049-060>072-079>083-020300-
CENTRAL AND SOUTH CENTRAL VIRGINIA...AND NORTH CENTRAL NORTH CAROLINA

CITY           SKY/WX    TMP DP  RH WIND       PRES   REMARKS
RICHMOND       PTCLDY    84  70  62 SW8       30.00R
CHESTERFIELD*  CLEAR     79  64  61 SW3       30.02R
PETERSBURG*    CLEAR     77  70  80 SW3       30.02R
HANOVER        CLEAR     84  70  62 SW7       30.01R
TAPPAHANNOCK*  CLEAR     79  69  70 CALM      29.99S
CHARLOTTSVILLE CLEAR     79  70  74 CALM      30.01R
ORANGE*        CLEAR     77  70  78 CALM      30.01R
LOUISA*        CLEAR     81  70  69 SW5       30.00R
FARMVILLE*     PTCLDY    79  70  73 SW3       30.01R
SOUTH HILL*    CLEAR     75  75 100 CALM      30.09R
ROANOKE RAPIDS CLEAR     77  72  83 CALM      30.03S
RALEIGH        PTCLDY    77  71  82 CALM      30.06R
$$

VAZ088>098-020300-
SOUTHEAST VIRGINIA

CITY           SKY/WX    TMP DP  RH WIND       PRES   REMARKS
NORFOLK        PTCLDY    86  66  51 W7        30.00S
VIRGINIA BEACH MOCLDY    83  72  69 S9        30.00S
NORFOLK NAVAL  MOCLDY    85  68  56 SW6       30.01S
WEST POINT*    PTCLDY    84  70  63 SW5       30.00S
NEWPORT NEWS   PTCLDY    85  71  63 SW8       30.00R
LANGLEY AFB    PTCLDY    82  71  67 SW7       29.99S
FORT EUSTIS    MOCLDY    82  68  62 S6        29.98S
WILLIAMSBURG*  PTCLDY    84  72  65 W6        30.00S
FRANKLIN*      CLEAR     79  70  73 CALM      30.01F
WAKEFIELD      CLEAR     80  70  71 SW5       30.01S
$$

VAZ020-022-025-037-045-020300-
WESTERN AND SOUTHWEST VIRGINIA

CITY           SKY/WX    TMP DP  RH WIND       PRES   REMARKS
STAUNTON*      MOCLDY    78  65  64 S3        30.07R
HOT SPRINGS VA LGT RAIN  65  60  86 NW6G21    30.23R
LYNCHBURG      CLEAR     76  68  76 SW3       30.07R
DANVILLE       CLEAR     75  68  78 CALM      30.06R
MARTINSVILLE   CLEAR     72  71  99 CALM      30.10S
ROANOKE        CLEAR     79  66  64 CALM      30.09R
BLACKSBURG     CLEAR     70  68  94 CALM      30.16R
DUBLIN*        PTCLDY    73  68  82 SW5       30.15R
MARION*        PTCLDY   N/A N/A N/A CALM      30.20R
HILLSVILLE*    PTCLDY    72  66  82 S6        30.18S
RICHLANDS*     PTCLDY    78  65  65 SW7       30.17S
WISE*          PTCLDY    72  64  78 SW7       30.18R
ABINGDON*      CLOUDY    74  70  88 CALM      30.15R
$$

MDZ021>025-VAZ099-100-020300-
SOUTHERN MARYLAND AND THE DELMARVA PENINSULA

CITY           SKY/WX    TMP DP  RH WIND       PRES   REMARKS
PATUXENT RIVER CLEAR     79  73  82 SW6       29.97R
BAY BRIDGE APT   N/A     79  75  89 S3        29.97R
LEONARDTOWN    CLEAR     79  70  73 CALM      29.99S
DOVER          CLEAR     80  74  81 S10       29.95S
GEORGETOWN     MOCLDY    80  70  71 S7        29.99R
EASTON         NOT AVBL
CAMBRIDGE      NOT AVBL
SALISBURY      CLEAR     79  70  74 CALM      29.98S
OCEAN CITY     CLEAR     80  71  74 SW6       29.99R
WALLOPS ISLAND CLEAR     80  76  87 SW12      29.99S
ACCOMACK*      NOT AVBL
$$

NCZ012>017-030>032-020300-
EASTERN NORTH CAROLINA

CITY           SKY/WX    TMP DP  RH WIND       PRES   REMARKS
ELIZABETH CITY MOCLDY    82  76  81 S12       30.03R
AHOSKIE*       CLEAR     76  74  93 CALM      30.03F
EDENTON*       MOCLDY    82  76  84 SW12      30.04S
CURRITUCK*     MOCLDY    83  74  74 S7        30.03S
KILL DEVIL HLS MOCLDY    81  75  82 SW9       30.03F
MANTEO         MOCLDY    81  76  85 SW14      30.04F
CAPE HATTERAS  PTCLDY    80  77  90 SW13G21   30.07S
GOLDSBORO      PTCLDY    81  79  94 S5        30.05R
WASHINGTON     PTCLDY    80  75  85 S6        30.06S
GREENVILLE     PTCLDY    81  77  89 SW12      30.07R
NEW BERN       PTCLDY    81  76  84 S7        30.08R
WILMINGTON     PTCLDY    80  75  84 S6        30.08R
$$

VAZ048-020300-
ELSEWHERE

CITY           SKY/WX    TMP DP  RH WIND       PRES   REMARKS
HARRISBURG PA  MOCLDY    77  73  87 SE6       29.96R
BALTIMORE      PTCLDY    78  74  87 CALM      29.97R
ANNAPOLIS      CLEAR     80  76  87 CALM      29.97R
ANDREWS AFB    CLEAR     76  75  95 CALM      29.98R
WILMINGTON DE  MOCLDY    79  76  90 S5        29.96S
PHILADELPHIA   MOCLDY    81  73  76 S7        29.95S
WILDWOOD NJ*   CLOUDY    81  72  74 SW9       29.99R
ATLANTIC CITY  CLEAR     76  74  93 SW3       29.97R
HENDERSON NC   CLEAR     75  71  87 CALM      30.06R
GREENSBORO     PTCLDY    81  66  60 CALM      30.08R
ROCKY MOUNT    PTCLDY    76  73  91 S5        30.05R
FAYETTEVILLE   PTCLDY    83  76  79 S8        30.06R
CHARLOTTE      PTCLDY    80  67  64 SW5       30.10R
$$

VAZ100-020300-
MARINE

STATION/POSITION TIME  TEMP    WIND        PRES    WAVE   SWELL
                       AIR SEA DIR/SP/G            HT/PER HT/PER
                 (UTC) (F)     (DEG/KT/KT) (MB)    (FT/S) (FT/S)
44066 TX TWR #4  0200   75 74  220/ 12/ 16 1015.0S   3/ 5   2/10
CAPE MAY NJ      0200   80 80  230/  9/ 11 1014.6F
LEWES DE         0200   81 78  230/  5/  9 1014.9F
15NM E FENWICK I 0200   77 76              1015.4R   3/11
OCEAN-CITY-INLET 0200   80 79  240/  6/  9 1015.1R
WACHAPREAGUE VA  0200   79 84  220/  4/  5 1015.4F
THOMAS POINT MD  0200   80 79  190/  8/  9 1015.7R
GOOSES REEF MD   0200   82     220/  8/  8 1015.1S
COVE POINT MD    0200   81     190/  7/  8 1014.7S
SOLOMONS ISLAND  0200      81                N/A
BISHOPS HEAD MD  0200   81 81  210/  7/  9 1014.7R
PINEY POINT MD   0200          230/  6/  7   N/A
POTOMAC MD       0200   80     230/  6/ 10 1014.5R
CAMBRIDGE MD     0200   80 80  170/  4/  5 1014.6S
LEWISETTA VA     0200   79 82  230/  4/  5 1014.6S
RAPPAHANNOCK LGT 0200          180/  9/ 10 1015.9F
STINGRAY PT      0200   82     230/  6/  8   N/A
YORK RVR RNG VA  0200   83     250/ 10/ 10 1015.1S
YORKTOWN VA      0200   83 81  230/  6/  7 1015.4R
JAMESTOWN VA     0200   81     260/  8/ 10   N/A
DOMINION TERM VA 0200   83     230/  8/  9 1016.0F
KIPTOPEKE VA     0200      83  240/ 10/ 12   N/A
CHES BAY BRIDGE  0200   85 80  220/ 12/ 14 1015.4R
CAPE HENRY VA    0200   86     240/  7/ 11 1014.7F
CHESAPEAKE LGHT  0100   81     200/ 19/ 20 1016.2R
WILLOUBY STN VA  0200   83     250/ 11/ 12 1014.6F
S CRANEY ISL VA  0200          220/  6/  8 1015.7F
CAPE HENRY BUOY  0200      80                N/A     3/ 8
1ST LANDING BUOY 0200   84     240/ 10/ 12 1015.6S
CAPE CHARLES BUO 0200      79                N/A     2/10   2/10
OFFSHORE WE BUOY 0200      79                N/A     4/ 4   2/ 8
64NM E OF VA BCH 0200   80 78  210/ 16/ 19 1016.2R   3/ 8   2/ 8
DUCK PIER NC     0200   82 75  200/ 11/ 16 1016.0F
44056 DUCK FRF   0200                        N/A     2/12   2/12
OREGON INLET NC  0200   82 85  210/ 17/ 20 1017.4F
HATTERAS NC      0200   82 84  220/ 10/ 15 1018.8R
DIAMOND SHLS NC  0200   82     200/ 16/ 19 1018.2R   4/ 4   2/10
CAPE LOOKOUT NC  0100   81     220/  8/ 10 1018.4R
$$


USA.gov is the U.S. government's official web portal to all federal, state and local government web resources and services.